EST,Max TemperatureF,Mean TemperatureF,Min TemperatureF,Max Dew PointF,MeanDew PointF,Min DewpointF,Max Humidity, Mean Humidity, Min Humidity, Max Sea Level PressureIn, Mean Sea Level PressureIn, Min Sea Level PressureIn, Max VisibilityMiles, Mean VisibilityMiles, Min VisibilityMiles, Max Wind SpeedMPH, Mean Wind SpeedMPH, Max Gust SpeedMPH,PrecipitationIn, CloudCover, Events, WindDirDegrees
2013-2-1,59,47,35,28,21,12,59,39,19,30.38,30.23,30.17,10,10,10,24,10,33,0.00,2,,299
2013-2-2,60,44,28,38,28,14,76,54,32,30.39,30.27,30.12,10,10,10,14,7,20,0.00,1,,155
2013-2-3,62,51,39,34,30,27,67,47,27,30.09,30.02,29.94,10,10,10,24,9,33,0.00,1,,274
2013-2-4,58,44,30,38,30,24,85,58,30,30.16,30.10,30.06,10,10,10,9,4,12,0.00,5,,156
2013-2-5,70,53,36,48,41,34,92,63,33,30.10,30.03,29.97,10,10,8,17,7,23,0.00,2,,232
2013-2-6,75,61,46,51,47,38,100,64,27,30.19,30.12,30.04,10,10,7,13,4,15,0.00,0,,244
2013-2-7,61,53,45,56,52,44,100,89,78,30.17,30.01,29.72,10,6,3,20,8,28,1.71,7,Fog-Rain,59
2013-2-8,65,57,48,53,47,45,96,74,52,30.07,29.91,29.74,10,10,7,20,9,26,0.07,5,,303
2013-2-9,63,51,38,45,31,20,92,56,20,30.35,30.24,30.09,10,10,10,17,7,21,0.00,0,,10
2013-2-10,67,52,36,54,44,36,92,72,51,30.41,30.32,30.22,10,10,10,17,7,23,0.00,5,,95
2013-2-11,65,62,59,62,60,55,97,88,78,30.23,30.14,30.07,10,8,1,21,9,28,1.23,8,Rain,218
2013-2-12,62,57,51,59,53,44,100,78,55,30.14,30.04,29.90,10,7,1,17,6,23,1.79,8,Rain,292
2013-2-13,75,62,49,63,52,44,100,72,44,29.89,29.80,29.70,10,7,0,26,9,36,0.42,7,Fog-Rain,272
2013-2-14,55,49,42,45,39,34,89,70,50,30.08,30.02,29.90,10,10,10,13,5,18,0.00,7,,342
2013-2-15,64,50,35,43,39,32,100,66,32,30.12,30.05,29.98,10,10,7,13,4,17,0.00,0,Fog,209
2013-2-16,54,44,34,42,37,27,96,76,56,30.05,29.91,29.86,10,10,7,26,8,35,0.02,4,Rain,322
2013-2-17,48,38,28,24,15,6,75,48,21,30.34,30.21,30.06,10,10,10,23,9,31,0.00,0,,299
2013-2-18,54,41,28,33,22,17,76,51,26,30.44,30.37,30.27,10,10,10,13,4,17,0.00,2,,181
2013-2-19,67,52,36,55,47,34,96,72,48,30.27,30.09,30.00,10,9,2,24,7,31,0.24,6,Rain,238
2013-2-20,60,46,31,46,32,23,100,63,25,30.17,30.11,30.07,10,10,10,13,5,16,0.00,3,,246
2013-2-21,65,50,34,45,38,33,100,67,34,30.20,30.14,30.11,10,10,10,14,4,16,0.00,3,,88
2013-2-22,63,55,47,61,49,41,100,84,68,30.21,30.13,30.07,10,6,0,26,9,30,0.53,8,Fog-Rain,38
2013-2-23,63,54,44,61,49,43,100,96,92,30.06,29.94,29.83,10,6,1,18,6,23,2.44,8,Rain,335
2013-2-24,69,59,48,55,48,39,100,69,37,30.01,29.94,29.82,10,9,1,14,6,17,T,6,Rain,313
2013-2-25,50,46,41,47,43,37,100,89,77,30.10,30.03,29.96,10,9,5,23,9,30,0.14,8,Rain,52
2013-2-26,73,61,48,66,58,46,100,83,65,29.95,29.73,29.60,10,8,2,40,16,49,1.88,7,Rain-Thunderstorm,163
2013-2-27,62,55,48,50,40,35,83,65,47,29.91,29.84,29.73,10,10,10,18,10,23,0.00,6,,265
2013-2-28,61,54,47,39,34,28,71,51,31,29.91,29.85,29.80,10,10,10,23,12,31,0.00,2,,284